Location: Hawks Ness
(60.2333°N, 1.1667°W)
Time: 10:18:33
(UTC+00:00)

Cosmos 1726 - Pass Details

Date: 02 February 2020
Orbit: 483 x 500 km, 82.5° (Epoch: 25 February)

Event Time Altitude Azimuth Distance (km) Brightness Sun altitude
Exits shadow 06:35:30 11° 329° (NNW) 1,606 4.3 -12.6°
Drops below altitude 10° 06:36:00 10° 336° (NNW) 1,681 4.5 -12.5°
Sets 06:39:15 0° 7° (N) 2,568 5.7 -12.1°
